Weather Roundup
Issued by NWS Springfield, MO

Home | Current Version | Previous Version | Text Only | Print | Product List | Glossary On
Versions: 1 2 3 4 5 6 7 8 9 10 11 12 13 14 15 16 17 18 19 20 21 22 23 24 25 26 27 28 29 30 31 32 33 34 35 36 37 38 39 40 41 42 43 44 45 46 47 48 49 50
420
NZUS99 KSGF 121407
HRRSGF

HOURLY WEATHER
NATIONAL WEATHER SERVICE SPRINGFIELD MO
800 AM CST FRI FEB 12 2016

......SGF CWA......

CITY           SKY/WX    TMP DP  RH WIND       PRES   REMARKS
SPRINGFIELD    CLEAR     28  22  78 NW3       30.23R
JOPLIN         CLEAR     27  23  85 CALM      30.28R
WEST PLAINS    SUNNY     27  21  78 CALM      30.20S
ROLLA          CLOUDY    26  23  88 N9        30.22R WCI  17
OSAGE BEACH    CLOUDY    28  21  74 NW3       30.27R
BRANSON        CLEAR     36  25  64 NW5       30.23R WCI  32

......SURROUNDING SGF CWA......

CITY           SKY/WX    TMP DP  RH WIND       PRES   REMARKS
CHANUTE        CLEAR     30  24  78 N13       30.32R WCI  20
PARSONS        CLOUDY    31  25  78 N9        30.32R WCI  23
COFFEYVILLE    CLOUDY    30  25  81 NW7       30.32R WCI  23
EMPORIA        PTCLDY    26  23  88 NW6       30.35R WCI  19
GROVE OK       CLOUDY    30  30 100 CALM      30.29R
ROGERS AR      CLEAR     35  26  69 NW7       30.25R WCI  29
SILOAM SPRINGS CLEAR     34  19  55 N5        30.26R WCI  30
HARRISON AR    CLEAR     38  26  62 NW7       30.23R WCI  33
NEAR YELLVILLE SUNNY     28  19  69 CALM      30.21R

......KANSAS AND MISSOURI......

CITY           SKY/WX    TMP DP  RH WIND       PRES   REMARKS
KANSAS CTY INT CLOUDY    30  22  72 N13       30.34R WCI  20
DOWNTOWN KC    CLOUDY    31  22  69 N8        30.35R WCI  23
COLUMBIA       CLOUDY    26  23  88 NW7       30.28R WCI  18
SEDALIA        CLOUDY    29  22  75 NW8       30.32R WCI  21
ST JOSEPH      CLOUDY    29  22  75 N16       30.37R WCI  17
ST LOUIS       CLOUDY    27  22  81 NW7       30.26R WCI  19
SPIRIT OF STL  CLOUDY    26  23  88 NW5       30.26R WCI  20
KIRKSVILLE     CLOUDY    23  17  78 NW10      30.29R WCI  12
WICHITA        MOCLDY    32  27  81 N13       30.34R WCI  22
TOPEKA         CLOUDY    31  24  75 N12       30.37R WCI  22
OLATHE         MOCLDY    29  21  72 N12       30.33R WCI  19

......TENNESSEE......

CITY           SKY/WX    TMP DP  RH WIND       PRES   REMARKS
MEMPHIS        MOSUNNY   37  26  64 NE3       30.20R
NASHVILLE      CLOUDY    34  23  64 CALM      30.19S

......ARKANSAS.......

CITY           SKY/WX    TMP DP  RH WIND       PRES   REMARKS
FAYETTEVILLE   CLEAR     28  26  92 S3        30.25R
FT SMITH       CLEAR     34  26  72 CALM      30.27R
LITTLE ROCK    MOSUNNY   37  29  72 N5        30.25R WCI  33

......OKLAHOMA.......

CITY           SKY/WX    TMP DP  RH WIND       PRES   REMARKS
TULSA          CLOUDY    31  28  89 N7        30.30R WCI  24
PONCA CITY     CLEAR     34  29  82 N16       30.30R WCI  24
MCALESTER      PTCLDY    33  29  85 CALM      30.27R
OKLAHOMA CITY  PTCLDY    32  29  88 CALM      30.28R

......IOWA............

CITY           SKY/WX    TMP DP  RH WIND       PRES   REMARKS
DES MOINES     CLOUDY    20  12  71 NW12      30.34R WCI   8
QUAD CITIES    CLOUDY    22  16  78 NW18      30.23R WCI   7

......ILLINOIS........

CITY           SKY/WX    TMP DP  RH WIND       PRES   REMARKS
QUINCY         CLOUDY    20  18  92 W8        30.26R WCI  10
CHICAGO        CLOUDY    19   9  65 W14       30.13S WCI   6




USA.gov is the U.S. government's official web portal to all federal, state and local government web resources and services.